Regional Weather Roundup
Issued by NWS

Home | Current Version | Previous Version | Text Only | Print | Product List | Glossary Off
Versions: 1 2 3 4 5 6 7 8 9 10 11 12 13 14 15 16 17 18 19 20 21 22 23 24 25 26 27 28 29 30 31 32 33 34 35 36 37 38 39 40 41 42 43 44 45 46 47 48 49 50

000
ASUS43 KLOT 050208
RWRIL

ILLINOIS REGIONAL WEATHER ROUNDUP
NATIONAL WEATHER SERVICE CHICAGO/ROMEOVILLE IL
800 PM CST SUN DEC 04 2016

NOTE: "FAIR" INDICATES FEW OR NO CLOUDS BELOW 12,000 FEET WITH NO
SIGNIFICANT WEATHER AND/OR OBSTRUCTIONS TO VISIBILITY.

* THESE STATIONS ARE NOT UNDER NWS QUALITY CONTROL. THEY ALSO MAY NOT
  REPORT WEATHER SUCH AS PRECIPITATION OR FOG.

ILZ001-002-007-009-015-016-024-050300-
NORTHWEST ILLINOIS

CITY           SKY/WX    TMP DP  RH WIND       PRES   REMARKS
MOLINE         CLOUDY    34  31  88 SW10      29.93R WCI  26
STERLING*      CLOUDY    31  30  96 VRB3      29.92S FOG
SAVANNA*       CLOUDY    33  32  98 SW8       29.91R FOG     WCI  25
$$

ILZ003-004-008-010-011-017-018-050300-
NORTH CENTRAL ILLINOIS

CITY           SKY/WX    TMP DP  RH WIND       PRES   REMARKS
ROCKFORD       CLOUDY    31  29  92 SW7       29.91S FOG     WCI  24
FREEPORT*      FOG       31  30  98 SW9       29.90F VSB 1   WCI  22
ROCHELLE*      CLOUDY    30  30  99 CALM      29.90S FOG
DE KALB*       CLOUDY    30  30  98 SW3       29.89S FOG
$$

ILZ005-006-012>014-019>023-050300-
NORTHEAST ILLINOIS

CITY           SKY/WX    TMP DP  RH WIND       PRES   REMARKS
CHICAGO-OHARE  MOCLDY    31  30  96 W3        29.87F FOG
CHICAGO-MIDWAY CLOUDY    33  31  92 W5        29.89S FOG     WCI  29
AURORA         CLOUDY    31  29  92 SW5       29.90S FOG     WCI  26
LANSING*       LGT SNOW  32  32 100 CALM      29.89S
JOLIET*        CLOUDY    32  32  99 CALM      29.91S FOG
WAUKEGAN       CLOUDY    32  31  96 SW3       29.86F FOG
DUPAGE AIRPORT CLOUDY    29  28  96 SW6       29.88F FOG     WCI  23
KANKAKEE*      CLOUDY    32  32  99 W6        29.92R FOG     WCI  26
WHEELING       CLOUDY    31  30  96 S3        29.89F FOG
MORRIS*        CLOUDY    31  30  97 CALM      29.91R FOG
ROMEOVILLE*    CLOUDY    31  31 100 CALM      29.90S FOG
NORTHERLY ISL    N/A     34  33  96 W5          N/A  WCI  30
$$

LMZ740>746-050300-
SOUTHERN LAKE MICHIGAN

STATION/POSITION SKY/WX   TEMP    WIND        PRES    VSBY  WAVE
                          AIR SEA DIR/SP/G                  HT/PER
                          (F)     (DEG/KT/KT) (MB)    (MI)  (FT/S)
HARRISON CRIB              35     280/  8/  9   N/A
BURNHAM HARBOR             34     290/  3/  7   N/A
CALUMET HARBOR             33     270/  3/  5 1011.7R
BURNS HARBOR               36     260/  6/  8 1012.2R
$$

ILZ025>027-034>036-040-047-049-050-058-095>099-050300-
WEST-CENTRAL ILLINOIS

CITY           SKY/WX    TMP DP  RH WIND       PRES   REMARKS
QUINCY         CLOUDY    35  33  92 W9        30.00R WCI  28
GALESBURG*     CLOUDY    33  33 100 SW7       29.95R WCI  27
MACOMB*        CLOUDY    33  33  99 W10       29.99R WCI  25
JACKSONVILLE*  CLOUDY    34  32  93 W10       30.00R WCI  26
PITTSFIELD*    CLOUDY    35  33  94 W10       30.01S WCI  27
$$

ILZ028>032-037-038-041>044-048-051>054-059>061-050300-
CENTRAL ILLINOIS

CITY           SKY/WX    TMP DP  RH WIND       PRES   REMARKS
PONTIAC        CLOUDY    32  32 100 W5        29.94R FOG     WCI  27
BLOOMINGTON    CLOUDY    32  31  96 W9        29.94R FOG     WCI  24
DECATUR        CLOUDY    33  33 100 W9        29.98R FOG     WCI  25
PEORIA         CLOUDY    33  33 100 W8        29.96R WCI  26
LACON*         CLOUDY    32  32 100 CALM      29.93S FOG
LINCOLN*       CLOUDY    33  33 100 SW5       29.98R FOG     WCI  29
SPRINGFIELD    CLOUDY    35  32  88 W7        30.00R WCI  29
TAYLORVILLE    CLOUDY    33  32  95 W7        30.00R WCI  27
$$

ILZ033-039-045-046-055>057-062-063-050300-
EAST-CENTRAL ILLINOIS

CITY           SKY/WX    TMP DP  RH WIND       PRES   REMARKS
CHAMPAIGN      CLOUDY    33  31  92 W13       29.95R FOG     WCI  24
RANTOUL*       CLOUDY    34  34  99 W7        29.93R FOG     WCI  28
MATTOON        CLOUDY    35  32  88 W15       29.97R WCI  25
PARIS*         CLOUDY    35  34  96 W17       29.95R WCI  24
$$

ILZ079-100>102-050300-
SOUTHWEST ILLINOIS

CITY           SKY/WX    TMP DP  RH WIND       PRES   REMARKS
ALTON          CLOUDY    37  34  87 NW12      30.02R WCI  30
BELLEVILLE     CLOUDY    39  38  96 NW10      30.01R WCI  32
CAHOKIA*       CLOUDY    41  34  76 W8        30.02R
SPARTA*        CLOUDY    40  35  84 NW9G17    30.02R
$$

ILZ064>066-069>071-074>076-080>082-084>086-088>090-092>094-050300-
SOUTH-CENTRAL ILLINOIS

CITY           SKY/WX    TMP DP  RH WIND       PRES   REMARKS
CARBONDALE     CLOUDY    40  37  89 W5        30.03R
CAIRO*         CLOUDY    42  39  90 CALM      30.03R
EFFINGHAM*     CLOUDY    38  37  96 W10       30.00R WCI  30
MARION         CLOUDY    41  37  87 NW3       30.02S
CENTRALIA*     CLOUDY    40  37  89 NW9       30.00R
SALEM*         CLOUDY    39  34  83 NW10      30.00R WCI  32
METROPOLIS*    CLOUDY    42  38  86 CALM      30.03R
$$

ILZ067-068-072-073-078-083-087-091-050300-
SOUTHEAST ILLINOIS

CITY           SKY/WX    TMP DP  RH WIND       PRES   REMARKS
LAWRENCEVILLE  CLOUDY    39  37  92 W12       29.98R WCI  32
FLORA*         CLOUDY    40  35  81 W13       30.00R
FAIRFIELD*     CLOUDY    39  34  82 W5        29.99S
HARRISBURG*    CLOUDY    40  37  88 NW9       30.02R
ROBINSON*      CLOUDY    38  34  86 W10       29.98R WCI  31
CARMI*         CLOUDY    40  36  87 W16       30.00R
$$

ABBREVIATIONS USED IN REMARKS
   TC - TEMPERATURE IN CELSIUS
  WCI - WIND CHILL INDEX
   HX - HEAT INDEX
  VSB - VISIBILITY
$$





USA.gov is the U.S. government's official web portal to all federal, state and local government web resources and services.